Epoch 2004 Aug. 23.0 TT = JDT 2453240.5 T 2004 Aug. 24.09073 TT MPC q 3.7919100 (2000.0) P Q z +0.0008616 Peri. 162.16606 -0.50255959 -0.41829281 +/-0.0000296 Node 307.33806 +0.63084194 +0.42099734 e 0.9967328 Incl. 72.10687 +0.59116183 -0.80485549
m1 = 9.3 + 5 logΔ + 10 log r(t - 200)